#timestamp,LO_Frequency,Hit,StdDev 
1610035215.1,286046994.7,N
1610035235.9,286046995.1,N
1610035255.7,286046997.4,N
1610035275.5,286047004.6,N
1610035295.4,286047006.3,N
1610035315.2,286046991.7,N
1610035335.1,286046984.7,Y
1610035336.0,286046984.7,P
1610035355.8,286046991.3,N
1610035375.6,286046987.6,P
1610035395.5,286046999.7,N
1610035415.3,286047004.5,N
1610035435.1,286046999.9,N
1610035455.9,286047013.6,N
1610035475.7,286047018.0,N
1610035495.6,286047020.2,N
1610035515.4,286047019.9,N
1610035535.2,286047013.3,N
1610035555.1,286047004.6,N
1610035556.0,286047004.6,N
1610035575.8,286047010.9,N
1610035595.6,286047007.9,N
1610035615.5,286047011.7,N
1610035635.3,286047008.2,N
1610035655.2,286047014.6,N
1610035675.9,286047021.2,N
1610035695.7,286047022.4,N
1610035715.6,286047026.3,N
1610035735.4,286047028.9,N
1610035755.2,286047028.7,N
1610035775.1,286047021.0,N
1610035776.0,286047021.0,N
1610035795.8,286047013.4,N
1610035815.7,286047013.5,N
1610035835.5,286047009.2,N
1610035855.3,286046999.9,N
1610035875.2,286046997.4,N
1610035895.0,286047002.2,N
1610035896.0,286047002.2,N
1610035915.8,286047000.1,N
1610035935.7,286046994.9,N
1610035955.5,286047001.5,N
1610035975.3,286046997.6,N
1610035995.2,286046999.5,N
1610036015.0,286046997.6,N
1610036015.9,286046997.6,N
1610036035.8,286046997.5,N
1610036055.6,286047001.6,N
1610036075.4,286047004.2,N
1610036095.3,286047009.1,N
1610036115.1,286046994.1,N
1610036135.9,286047001.7,N
1610036155.7,286047005.4,N
1610036175.5,286047006.6,N
1610036195.4,286047004.4,N
1610036215.2,286047007.2,N
1610036235.1,286047001.5,N
1610036236.0,286047001.5,N
1610036255.8,286047004.4,N
1610036275.6,286047007.5,N
1610036295.5,286047008.6,N
1610036315.3,286047012.2,N
1610036335.1,286046998.6,N
1610036355.9,286046999.6,N
1610036375.7,286046998.6,N
1610036395.6,286046998.6,N
1610036415.4,286046990.4,N
1610036435.2,286046994.9,N
1610036455.1,286046997.8,N
1610036456.0,286046997.8,N
1610036475.8,286046999.4,N
1610036495.7,286046996.1,N
1610036515.5,286046998.4,N
1610036535.3,286046990.4,N
1610036555.2,286046990.1,N
1610036575.0,286046995.9,N
1610036575.9,286046995.9,N
1610036595.8,286046994.2,N
1610036615.6,286046997.9,N
1610036635.4,286046997.8,N
1610036655.3,286046995.2,N
1610036675.1,286047003.0,N
1610036695.8,286046998.9,N
1610036715.7,286046997.7,N
1610036735.5,286046997.0,N
1610036755.4,286046993.8,N
1610036775.2,286046996.6,N
1610036795.1,286046996.5,N
1610036796.0,286046996.5,N
1610036815.8,286046993.6,N
1610036835.7,286046993.1,N
1610036855.5,286046994.9,N
1610036875.3,286046991.9,N
1610036895.2,286046998.6,N
1610036915.0,286047001.9,N
1610036915.9,286047001.9,N
1610036935.8,286047002.1,N
1610036955.6,286046994.7,N
1610036975.4,286046997.3,N
1610036995.4,286046996.5,N
1610037015.2,286046997.1,N
1610037035.1,286047000.0,N
1610037036.0,286047000.0,N
1610037055.8,286047001.6,N
1610037075.7,286047004.3,N
1610037095.5,286046998.5,N
1610037115.3,286046994.2,N
1610037135.2,286046987.2,Y
1610037155.0,286046991.3,P
1610037155.9,286046991.3,N
1610037175.7,286046995.7,N
1610037195.6,286046993.4,N
1610037215.4,286046996.1,N
1610037235.3,286046993.8,N
1610037255.1,286046990.3,Y
1610037256.0,286046990.3,P
1610037275.8,286047002.9,N
1610037295.7,286047002.3,N
1610037315.5,286047003.8,N
1610037335.4,286047008.0,N
1610037355.2,286047007.8,N
1610037375.0,286047011.3,N
1610037375.9,286047011.3,N
1610037395.8,286047010.4,N
1610037415.6,286047004.6,N
1610037435.4,286047007.2,N
1610037455.3,286047001.3,N
1610037475.1,286047000.9,N
1610037495.9,286047001.7,N
1610037515.7,286046998.3,N
1610037535.5,286046998.2,N
1610037555.4,286046997.6,N
1610037575.2,286047007.1,N
1610037595.0,286047002.7,N
1610037595.9,286047002.7,N
1610037615.8,286047005.3,N
1610037635.6,286046996.5,N
1610037655.5,286047001.2,N
1610037675.3,286046996.3,N
1610037695.1,286046994.8,N
1610037715.9,286047002.5,N
1610037735.7,286047003.5,N
1610037755.5,286047001.5,N
1610037775.4,286047007.3,N
1610037795.2,286047017.2,Y
1610037815.1,286047013.3,P
1610037816.0,286047013.3,N
1610037835.8,286047018.4,P
1610037855.6,286047013.4,N
1610037875.5,286047007.8,N
1610037895.3,286047009.7,N
1610037915.1,286047015.6,Y
1610037935.9,286047008.0,P
1610037955.7,286047003.0,N
1610037975.6,286046997.0,N
1610037995.4,286046995.7,N
1610038015.2,286046997.2,N
1610038035.1,286046991.3,N
1610038036.0,286046991.3,N
1610038055.8,286046984.0,N
1610038075.6,286046985.5,N
1610038095.5,286046991.0,N
1610038115.3,286046999.3,N
1610038135.2,286047005.7,N
1610038155.9,286047005.9,N
1610038175.7,286047010.1,N
1610038195.6,286047014.5,N
1610038215.4,286047022.1,N
1610038235.2,286047023.6,N
1610038255.1,286047025.3,N
1610038256.0,286047025.3,N
1610038275.8,286047028.9,N
1610038295.7,286047028.2,N
1610038315.5,286047027.4,N
1610038335.3,286047026.3,N
1610038355.2,286047027.2,N
1610038375.0,286047018.6,N
1610038375.9,286047018.6,N
1610038395.8,286047006.3,N
1610038415.6,286047007.7,N
1610038435.4,286047009.9,N
1610038455.3,286047011.4,N
1610038475.1,286047017.2,N
1610038495.8,286047016.1,N
1610038515.7,286047023.6,N
1610038535.5,286047020.0,N
1610038555.4,286047013.8,N
1610038575.2,286047019.1,N
1610038595.0,286047011.7,N
1610038595.9,286047011.7,N
1610038615.8,286047010.2,N
1610038635.6,286047000.2,N
1610038655.4,286046997.4,N
1610038675.3,286047004.3,N
1610038695.1,286047010.6,N
1610038715.9,286047015.6,N
1610038735.7,286047009.5,N
1610038755.5,286047012.2,N
1610038775.4,286047012.0,N
1610038795.2,286047001.1,N
